Hourly Data Report for October 10, 2014

All times are specified in Local Standard Time (LST). Add 1 hour to adjust for Daylight Saving Time where and when it is observed.

KAMLOOPS A
BRITISH COLUMBIA

50°42'09.000" N
120°26'55.000" W
345.30 m
1163781
71887
YKA

Download Data

Hourly Data (October 2014)
Hourly Data Report for October 10, 2014
Temp Definition
°C
Dew Point Temp Definition
°C
Rel Hum Definition
%
Wind Dir Definition
10's deg

Wind Spd Definition
km/h
Visibility Definition
km
Stn Press Definition
kPa
Hmdx Definition


Wind Chill Definition


Weather Definition


TIME
00:00 Legend Double Dagger 9.9 7.0 82 36 1 64.4 97.63     LegendNANA
01:00 Legend Double Dagger 8.8 6.6 86 6 5 64.4 97.64     Clear
02:00 Legend Double Dagger 8.1 5.9 86 5 3 64.4 97.63     LegendNANA
03:00 Legend Double Dagger 8.9 7.2 89 14 4 64.4 97.60     LegendNANA
04:00 Legend Double Dagger 7.9 6.1 88 5 5 64.4 97.59     Clear
05:00 Legend Double Dagger 6.5 5.0 90 11 9 64.4 97.58     LegendNANA
06:00 Legend Double Dagger 8.3 7.1 92 9 16 16.1 97.56     LegendNANA
07:00 Legend Double Dagger 8.6 7.2 91 9 14 24.1 97.55     Mostly Cloudy
08:00 Legend Double Dagger 9.4 7.5 88 6 10 24.1 97.52     LegendNANA
09:00 Legend Double Dagger 10.3 7.9 85 10 11 24.1 97.48     LegendNANA
10:00 Legend Double Dagger 11.9 8.6 80 10 9 32.2 97.37     Mostly Cloudy
11:00 Legend Double Dagger 14.1 9.0 71 11 16 64.4 97.26     LegendNANA
12:00 Legend Double Dagger 16.5 9.3 62 11 18 48.3 97.11     LegendNANA
13:00 Legend Double Dagger 16.7 8.7 59 10 11 64.4 97.05     Mostly Cloudy
14:00 Legend Double Dagger 17.2 9.9 62 27 8 64.4 97.01     LegendNANA
15:00 Legend Double Dagger 16.0 10.2 68 28 4 64.4 96.92     LegendNANA
16:00 Legend Double Dagger 22.9 5.1 31 23 20 64.4 96.86     Mostly Cloudy
17:00 Legend Double Dagger 21.7 4.9 33 36 5 64.4 96.85     LegendNANA
18:00 Legend Double Dagger 20.1 3.5 33 21 33 64.4 96.84     LegendNANA
19:00 Legend Double Dagger 18.9 3.6 36 25 18 64.4 96.86     Mostly Cloudy
20:00 Legend Double Dagger 18.0 4.3 40 30 14 64.4 96.93     LegendNANA
21:00 Legend Double Dagger 17.2 5.0 44 22 7 64.4 96.98     LegendNANA
22:00 Legend Double Dagger 16.1 5.2 48 27 10 64.4 96.98     Mainly Clear
23:00 Legend Double Dagger 14.5 5.6 55 15 9 64.4 96.97     LegendNANA

Notes on Data Quality.

Legend

  • E = Estimated
  • M = Missing
  • NA = Not Available
  • ‡ = Partner data that is not subject to review by the National Climate Archives
Date modified: